{"data":{"norad_id":37948,"intl_designator":"2011-073A","name":"BEIDOU-2 IGSO-5 (C10)","alt_names":[],"object_type":"PAYLOAD","status":"ACTIVE","operator":null,"country":"PRC","launch_date":"2011-12-01","launch_site_code":"XICLF","launch_vehicle":null,"mission":null,"orbit_class":"UNKNOWN","rcs_meters":12.5893,"size_class":null,"mass_kg":null,"dimensions":null,"purposes":["comms","nav"],"wikipedia_slug":null,"has_3d_model":false,"image_url":null,"decayed_at":null,"tle_current":{"epoch":"2026-09-18T17:29:04.508160Z","epoch_age_seconds":167570,"freshness":"FRESH","line1":"1 37948U 11073A   26261.72852440 -.00000129  00000+0  00000+0 0  9993","line2":"2 37948  47.5134 270.3747 0116604 224.4140 220.9898  1.00277777 54074","mean_motion":1.00277777,"eccentricity":0.0116604,"inclination_deg":47.5134,"raan_deg":270.3747,"arg_perigee_deg":224.414,"mean_anomaly_deg":220.9898,"bstar":0,"rev_number":5407,"period_min":1436.0110914704,"perigee_km":35293.277215034,"apogee_km":36276.553324406,"semimajor_km":42163.05226972,"source":"CELESTRAK","updated_at":"2026-09-20T09:00:46.671743Z"}}}